This demonstration page uses our WeatherBlox Daily Observations layout. Learn more.

Left ArrowRight Arrow

40.92945, -100.16068

Hourly Observations for October 27, 2020

Temp ( °F °C ) Dew Point ( °F °C ) Humidity (%) Winds ( mph kmh ) Pressure ( in mb ) Visibility ( mi km ) Precip ( " mm )
12:15 am 00:15 Cloudy 22 -5.5 13 -10.4 69 69 SW 5 7 30.5 1033 10 16.0934 0 0
12:35 am 00:35 Partly Cloudy 21 -6.3 13 -10.6 72 72 SW 6 9 30.5 1033 10 16.0934 0 0
12:55 am 00:55 Clear 19 -7.2 12 -11 75 75 SW 6 9 30.51 1033 10 16.0934 0 0
1:15 am 01:15 Clear 17 -8.3 11 -11.5 78 78 WSW 5 7 30.51 1033 10 16.0934 0 0
1:35 am 01:35 Clear 18 -8 11 -11.5 76 76 SSW 5 7 30.49 1033 10 16.0934 0 0
1:55 am 01:55 Clear 16 -8.8 10 -12.1 77 77 SW 7 11 30.52 1034 10 16.0934 0 0
2:15 am 02:15 Clear 15 -9.3 10 -12.1 80 80 WSW 5 7 30.51 1033 10 16.0934 0 0
2:35 am 02:35 Clear 16 -9 10 -12 79 79 W 5 7 30.49 1033 10 16.0934 0 0
2:55 am 02:55 Clear 15 -9.6 10 -12.5 80 80 WSW 6 9 30.49 1032 10 16.0934 0 0
3:15 am 03:15 Clear 15 -9.4 10 -12.1 81 81 SW 9 15 30.51 1033 10 16.0934 0 0
3:35 am 03:35 Clear 15 -9.5 10 -12.3 80 80 SW 6 9 30.51 1033 10 16.0934 0 0
3:55 am 03:55 Clear 13 -10.6 9 -13 83 83 SW 6 9 30.51 1033 10 16.0934 0 0
4:15 am 04:15 Clear 13 -10.4 9 -12.6 84 84 SW 7 11 30.51 1033 10 16.0934 0 0
4:35 am 04:35 Clear 13 -10.4 9 -12.7 83 83 WSW 5 7 30.51 1033 10 16.0934 0 0
4:55 am 04:55 Clear 13 -10.6 9 -13 83 83 WSW 6 9 30.5 1033 10 16.0934 0 0
5:15 am 05:15 Clear 13 -10.6 9 -13 83 83 WSW 5 7 30.49 1032 10 16.0934 0 0
5:35 am 05:35 Clear 13 -10.8 8 -13.3 82 82 WSW 3 6 30.49 1033 10 16.0934 0 0
5:55 am 05:55 Clear 13 -10.5 8 -13.1 81 81 W 3 6 30.48 1032 10 16.0934 0 0
6:15 am 06:15 Clear 13 -10.7 8 -13.2 82 82 W 5 7 30.47 1032 10 16.0934 0 0
6:35 am 06:35 Clear 12 -11.3 7 -13.7 83 83 WNW 3 6 30.46 1031 10 16.0934 0 0
6:55 am 06:55 Clear 10 -12 7 -14 85 85 W 6 9 30.46 1032 10 16.0934 0 0
7:15 am 07:15 Clear 10 -12.1 6 -14.3 84 84 W 6 9 30.46 1032 10 16.0934 0 0
7:35 am 07:35 Clear 9 -12.7 6 -14.7 85 85 W 5 7 30.47 1032 10 16.0934 0 0
7:55 am 07:55 Clear 9 -12.7 5 -15.1 82 82 SW 5 7 30.49 1033 10 16.0934 0 0
8:15 am 08:15 Sunny 9 -12.7 5 -15.1 82 82 W 6 9 30.47 1032 10 16.0934 0 0
8:35 am 08:35 Sunny 10 -12.4 5 -14.8 82 82 WSW 5 7 30.48 1032 10 16.0934 0 0
8:55 am 08:55 Sunny 12 -11.2 7 -13.9 81 81 SW 3 6 30.49 1032 10 16.0934 0 0
9:15 am 09:15 Sunny 14 -10 8 -13.4 76 76 W 5 7 30.46 1032 10 16.0934 0 0
9:35 am 09:35 Sunny 16 -9 8 -13.1 72 72 WNW 8 13 30.45 1031 10 16.0934 0 0
9:55 am 09:55 Sunny 17 -8.4 9 -12.9 70 70 SW 5 7 30.43 1031 10 16.0934 0 0
10:15 am 10:15 Sunny 19 -7.2 11 -11.9 69 69 SSW 6 9 30.42 1030 10 16.0934 0 0
10:35 am 10:35 Sunny 20 -6.7 10 -12 66 66 WSW 6 9 30.41 1030 10 16.0934 0 0
10:55 am 10:55 Sunny 23 -5 12 -11.2 62 62 SW 7 11 30.4 1029 10 16.0934 0 0
11:15 am 11:15 Sunny 24 -4.5 12 -11 61 61 SW 5 7 30.4 1030 10 16.0934 0 0
11:35 am 11:35 Sunny 26 -3.1 14 -10.1 59 59 W 6 9 30.39 1029 10 16.0934 0 0
11:55 am 11:55 Sunny 28 -2 14 -10.1 54 54 WSW 7 11 30.36 1028 10 16.0934 0 0
12:15 pm 12:15 Sunny 30 -1 14 -10 51 51 WSW 9 15 30.35 1028 10 16.0934 0 0
12:35 pm 12:35 Sunny 32 -0.1 14 -10.1 47 47 WSW 10 17 30.34 1027 10 16.0934 0 0
12:55 pm 12:55 Sunny 33 0.3 16 -9 50 50 SW 12 19 30.32 1027 10 16.0934 0 0
1:15 pm 13:15 Sunny 33 0.6 16 -8.9 49 49 WSW 9 15 30.31 1026 10 16.0934 0 0
2:35 pm 14:35 Sunny 36 2.1 19 -7.5 49 49 SW 14 22 30.25 1024 10 16.0934 0 0
2:55 pm 14:55 Sunny 37 2.7 19 -7.5 47 47 SW 16 26 30.23 1024 10 16.0934 0 0
3:15 pm 15:15 Sunny 38 3.1 19 -7.1 47 47 WSW 9 15 30.22 1023 10 16.0934 0 0
3:35 pm 15:35 Sunny 38 3.5 20 -6.9 47 47 SW 10 17 30.2 1023 10 16.0934 0 0
3:55 pm 15:55 Sunny 39 3.9 19 -7 45 45 SW 12 19 30.19 1022 10 16.0934 0 0
4:15 pm 16:15 Sunny 39 3.9 19 -7.3 44 44 WSW 9 15 30.18 1022 10 16.0934 0 0
4:35 pm 16:35 Sunny 39 4.1 20 -6.7 46 46 SSW 10 17 30.17 1022 10 16.0934 0 0
4:55 pm 16:55 Sunny 39 4 20 -6.7 46 46 SSW 9 15 30.17 1022 10 16.0934 0 0
5:15 pm 17:15 Sunny 39 4 20 -6.6 46 46 SSW 10 17 30.17 1022 10 16.0934 0 0
5:35 pm 17:35 Sunny 39 3.7 20 -6.4 48 48 SW 10 17 30.16 1021 10 16.0934 0 0
5:55 pm 17:55 Sunny 38 3.4 20 -6.5 49 49 SW 9 15 30.17 1022 10 16.0934 0 0
6:15 pm 18:15 Sunny 36 2.4 21 -6.2 53 53 SW 7 11 30.17 1022 10 16.0934 0 0
6:35 pm 18:35 Sunny 34 1.2 20 -6.5 57 57 SSW 9 15 30.19 1022 10 16.0934 0 0
6:55 pm 18:55 Clear 32 0 20 -6.7 61 61 SW 8 13 30.2 1023 10 16.0934 0 0
7:15 pm 19:15 Clear 31 -0.5 19 -7 62 62 SSW 8 13 30.21 1023 10 16.0934 0 0
7:35 pm 19:35 Clear 30 -1 19 -7.3 63 63 SW 9 15 30.21 1023 10 16.0934 0 0
7:55 pm 19:55 Clear 29 -1.5 19 -7.2 66 66 SW 8 13 30.22 1023 10 16.0934 0 0
8:15 pm 20:15 Clear 28 -2 19 -7.1 68 68 SW 7 11 30.23 1024 10 16.0934 0 0
8:35 pm 20:35 Clear 28 -2.2 18 -7.8 66 66 SW 6 9 30.23 1024 10 16.0934 0 0
8:55 pm 20:55 Clear 27 -2.7 18 -8 67 67 WSW 6 9 30.23 1024 10 16.0934 0 0
9:15 pm 21:15 Clear 28 -2.1 18 -8 64 64 WSW 7 11 30.24 1024 10 16.0934 0 0
9:35 pm 21:35 Clear 26 -3.5 17 -8.1 71 71 WSW 7 11 30.25 1024 10 16.0934 0 0
9:55 pm 21:55 Clear 27 -3 18 -8 69 69 SW 10 17 30.24 1024 10 16.0934 0 0
10:15 pm 22:15 Clear 28 -2.3 18 -8 65 65 SW 9 15 30.21 1023 10 16.0934 0 0
10:35 pm 22:35 Clear 27 -2.7 18 -7.7 69 69 WSW 7 11 30.22 1024 10 16.0934 0 0
10:55 pm 22:55 Clear 26 -3.6 18 -7.7 74 74 SW 7 11 30.24 1024 10 16.0934 0 0
11:15 pm 23:15 Clear 25 -3.7 18 -7.7 74 74 WSW 5 7 30.24 1024 10 16.0934 0 0
11:35 pm 23:35 Clear 27 -3 19 -7 74 74 WSW 6 9 30.23 1024 10 16.0934 0 0
11:55 pm 23:55 Clear 26 -3.5 19 -7 77 77 W 6 9 30.23 1024 10 16.0934 0 0

Powered by AerisWeather